Regional Weather Roundup
Issued by NWS Charleston, SC

Current Version | Previous Version | Graphics & Text | Print | Product List | Glossary On
Versions: 1 2 3 4 5 6 7 8 9 10 11 12 13 14 15 16 17 18 19 20 21 22 23 24 25 26 27 28 29 30 31 32 33 34 35 36 37 38 39 40 41 42 43 44 45 46 47 48 49 50
000
ASUS42 KCHS 251528
RWRCHS

REGIONAL WEATHER ROUNDUP
NATIONAL WEATHER SERVICE CHARLESTON SC
1100 AM EDT MON JUL 25 2016

NOTE: "FAIR" INDICATES FEW OR NO CLOUDS BELOW 12,000 FEET WITH NO
SIGNIFICANT WEATHER AND/OR OBSTRUCTIONS TO VISIBILITY.

NOT ALL STATIONS ARE QUALITY CONTROLLED. USE DATA WITH CAUTION...
ESPECIALLY DEWPOINT OBSERVATIONS.

SCZ027-030-031-034>040-042>050-251600-
...SOUTHEAST SOUTH CAROLINA...

CITY           SKY/WX    TMP DP  RH WIND       PRES   REMARKS
N CHARLESTON   MOSUNNY   88  74  63 S6        30.09F HX  96
WATERFRONT PRK   N/A     86  76  72 S7        30.07F HX  96
MOUNT PLEASANT FAIR      90  75  62 S9        30.09S HX 100
JOHNS ISLAND   FAIR      90  77  66 S13       30.09S HX 102
PINOPOLIS        N/A     84  75  74 VRB3      30.03S HX  92
MONCKS CORNER  FAIR      86  70  58 SW3       30.09S HX  90
SUMMERVILLE    NOT AVBL
BEAUFORT MCAS  MOSUNNY   90  71  53 VRB6      30.09F HX  96
BEAUFORT ARPT  FAIR      88  73  62 S6        30.09S HX  96
HILTON HEAD IS MOSUNNY   93  73  52 SW5       30.10F HX 102
WALTERBORO     SUNNY     90  70  51 S6        30.10S HX  95
ALLENDALE      FAIR      88  72  58 CALM      30.08S HX  94

...SOUTHERN MIDLANDS AND PEE DEE...

CITY           SKY/WX    TMP DP  RH WIND       PRES   REMARKS
GEORGETOWN     PTSUNNY   86  73  66 W5        30.10S HX  93
KINGSTREE      FAIR      88  70  55 S5        30.09S HX  92
ORANGEBURG     SUNNY     87  73  62 S6        30.09S HX  94
BARNWELL       NOT AVBL
AIKEN          FAIR      88  72  58 CALM      30.11F HX  94
MANNING        FAIR      86  70  58 S7        30.09S HX  90
COLUMBIA       PTSUNNY   87  72  60 W6        30.08S HX  93
SUMTER         MOSUNNY   87  72  61 S7        30.06S HX  93
FLORENCE       SUNNY     88  71  57 W9        30.08S HX  94
MYRTLE BEACH   PTSUNNY   90  72  55 SW8       30.11S HX  96
N MYRTLE BEACH MOSUNNY   87  75  67 W7        30.08F HX  96

$$

GAZ063-065-086>088-099>101-113>116-118-119-134>141-150-251600-
...SOUTHEAST GEORGIA...

CITY           SKY/WX    TMP DP  RH WIND       PRES   REMARKS
SAVANNAH ARPT  MOSUNNY   87  72  60 S9        30.09F HX  93
HUNTER AAF     SUNNY     88  77  69 S6        30.07F HX  99
FORT STEWART   SUNNY     86  73  66 S1        30.07F HX  92
STATESBORO     SUNNY     89  75  62 S5        30.09S HX  98
SYLVANIA       NOT AVBL
CLAXTON        FAIR      88  74  63 CALM      30.09S HX  97

...CSRA...CENTRAL AND FAR SOUTHEAST GEORGIA...

CITY           SKY/WX    TMP DP  RH WIND       PRES   REMARKS
THOMSON        NOT AVBL
AUGUSTA-BUSH   SUNNY     89  71  55 NW3       30.06F HX  95
AUGUSTA-DANIEL SUNNY     88  72  58 CALM      30.09S HX  94
SWAINSBORO     FAIR      88  72  58 CALM      30.09S HX  94
VIDALIA        SUNNY     90  72  55 S3        30.09S HX  96
EASTMAN        FAIR      90  64  43 CALM      30.10F HX  91
HAZLEHURST     FAIR      91  76  60 CALM      30.08S HX 102
ALMA           SUNNY     86  73  65 CALM      30.09S HX  93
WAYCROSS       SUNNY     90  77  65 CALM      30.09S HX 103
JESUP          FAIR      88  77  70 CALM      30.10R HX 100
BAXLEY         FAIR      88  77  70 NW3       30.09S HX 100
BRUNSWICK      MOSUNNY   90  72  55 SW5       30.10S HX  96
SAINT SIMONS   SUNNY     87  71  58 VRB5      30.09S HX  93

$$

SCZ027-028-034-036>038-045-046-048>050-GAZ119-141-251600-
...LAKE AND SUPPLEMENTAL COASTAL OBSERVATIONS...

STATION/POSITION TIME  TEMP    WIND        PRES    WAVE   SWELL
                       AIR SEA DIR/SP/G            HT/PER HT/PER/DIR
                 (UTC) (F)     (DEG/KT/KT) (MB)    (FT/S) (FT/S/D)
WINYAH BAY       1445   87     240/  5     1018.0S
LAKE MURRAY      1500   86     170/  5/  6 1017.6F
ACE BASIN NERRS  1400   87     220/  1     1019.0S
FORT PULASKI     1500   86 87  210/  4/  8 1019.4F
SAPELO ISLAND    1500   89     170/  5     1019.0S

$$

ANZ835-935-AMZ111-154-330-350-352-354-370-450-454-472-251600-
...C-MAN AND BUOY OBSERVATIONS...

STATION/POSITION TIME  TEMP    WIND        PRES    WAVE   SWELL
                       AIR SEA DIR/SP/G            HT/PER HT/PER/DIR
                 (UTC) (F)     (DEG/KT/KT) (MB)    (FT/S) (FT/S/D)
BUOY 41004       1450   85 86  230/  6/  8 1018.9F   2/ 8   2/130/ 8
BUOY 41008       1450   84 86  210/  4/  6 1019.1R   2/ 8   2/130/ 8
FOLLY BEACH CMAN 1500   85     190/ 10/ 11 1019.2F
CAPERS NEARSHORE 1508   84 84  210/ 10/ 14 1018.8F
FRIPP NEARSHORE  1508   85 86  230/  4/  8 1018.5F


STATION/POSITION TIME  TEMP    WIND        PRES    WAVE   SWELL
                       AIR SEA DIR/SP/G            HT/PER HT/PER/DIR
                 (UTC) (F)     (DEG/KT/KT) (MB)    (FT/S) (FT/S/D)
5E ST. MARYS GA  1501      86                N/A     2/ 8
FRYING PAN BUOY  1500   84 85  220/  8/ 10 1019.0R
BUOY 41025       1450   84 85  250/ 12/ 12 1018.5R   3/ 5   2/110/ 8
CAPE LOOKOUT NC  1500   85     240/ 11/ 12 1018.4R
BUOY 41002       1450   83 85  180/  4/  6 1020.4R   2/ 8   2/100/ 8
BUOY 41010       1420   84 87  180/  4/  6 1019.4R
ST AUGUSTINE FL  1500   81 85  110/  7/  8 1020.1F


$$




USA.gov is the U.S. government's official web portal to all federal, state and local government web resources and services.